[[{"header":{"parameterUnit":"m.s-1","parameterCategory":1,"la1":30.2991,"la2":30.254,"lo1":-89.0895,"lo2":-89.0444,"dy":0.0017,"dx":0.0017,"nx":28,"ny":28,"refTime":"2024-04-16T09:00:00:Z","depth":0,"parameterNumber":2,"parameterNumberName":"U-component_of_WINDS"},"data":[0,0,0,0,0,0,0,0,0,0,0,0,0,0,0,0,0,0,0,0,0,0,0,0,0,0,0,0,0,0,0,0,0,0,0,0,0,0,0,0,0,0,0,0,0,0,0,0,0,0,0,0,0,0,0,0,0,0,-1.1116,-1.1116,0,-1.1154,-1.1154,-1.1155,-1.1153,-1.1153,-1.1152,-1.1152,-1.1192,-1.1193,-1.1195,0,0,0,0,0,0,0,0,0,0,0,0,0,-1.1043,-1.1045,-1.1116,-1.1116,-1.1116,-1.1154,-1.1154,-1.1155,-1.1153,-1.1153,-1.1152,-1.1151,-1.1191,-1.1193,-1.1195,0,0,0,0,0,0,0,0,0,0,0,0,0,-1.1077,-1.1045,-1.1115,-1.112,-1.1121,-1.1154,-1.1154,-1.1155,-1.1153,-1.1153,-1.1152,-1.1151,-1.1191,-1.1193,-1.1195,-1.1226,0,0,-1.1202,-1.1203,0,0,0,0,0,0,0,0,-1.1075,-1.108,-1.1119,-1.112,-1.1121,-1.1148,-1.1144,-1.1179,-1.1154,-1.1141,-1.1152,-1.1151,-1.1178,-1.1181,-1.119,-1.1228,-1.123,-1.1203,-1.1204,-1.1205,-1.1206,0,0,0,0,0,0,0,-1.1073,-1.1078,-1.1131,-1.112,-1.1121,-1.1121,-1.1125,-1.115,-1.1164,-1.1142,-1.1142,-1.1147,-1.1178,-1.1188,-1.1191,-1.123,-1.1203,-1.1205,-1.1206,-1.1207,-1.1297,-1.1298,0,0,0,0,0,0,-1.1069,-1.1076,-1.1129,-1.1132,-1.1096,-1.1123,-1.1128,-1.114,-1.1163,-1.1166,-1.1147,-1.1146,-1.1184,-1.1188,-1.1193,-1.1231,-1.1205,-1.1207,-1.1209,-1.1296,-1.1297,-1.1298,0,0,0,0,0,0,-1.1068,-1.1074,-1.1128,-1.1104,-1.1111,-1.1125,-1.1139,-1.1141,-1.1151,-1.1167,-1.117,-1.1155,-1.1184,-1.1189,-1.1218,-1.1232,-1.1208,-1.121,-1.1295,-1.1296,-1.1297,-1.1308,0,0,0,0,0,0,-1.1066,-1.1074,-1.1085,-1.1104,-1.1112,-1.1152,-1.114,-1.1143,-1.1155,-1.1154,-1.1175,-1.1177,-1.1184,-1.1214,-1.122,-1.1235,-1.1212,-1.1293,-1.1295,-1.1297,-1.1306,-1.1309,-1.1312,0,0,0,0,0,-1.1063,-1.1086,-1.1085,-1.1092,-1.1127,-1.1153,-1.1158,-1.1164,-1.1156,-1.1168,-1.1179,-1.1177,-1.123,-1.1217,-1.1224,-1.124,-1.1293,-1.1295,-1.1297,-1.1305,-1.1309,-1.1312,0,0,0,0,0,0,-1.1068,-1.1089,-1.1088,-1.1118,-1.1134,-1.1153,-1.1168,-1.1168,-1.1186,-1.1185,-1.1192,-1.1197,-1.1226,-1.1236,-1.1222,-1.1272,-1.126,-1.1264,-1.1264,-1.1268,-1.1271,-1.1268,-1.1214,0,0,0,0,0,-1.1072,-1.1091,-1.1109,-1.1133,-1.1141,-1.1153,-1.1165,-1.1169,-1.1185,-1.1192,-1.1205,-1.1222,-1.1242,-1.1256,-1.1275,-1.1308,-1.1313,-1.1322,-1.1325,-1.1327,-1.133,-1.135,-1.1354,-1.1305,-1.1305,-1.1305,0,0,-1.1082,-1.1095,-1.1107,-1.1135,-1.1147,-1.1168,-1.1159,-1.118,-1.1196,-1.1196,-1.1224,-1.1234,-1.1253,-1.1284,-1.1298,-1.1293,-1.1345,-1.133,-1.1332,-1.1334,-1.1352,-1.1357,-1.1361,-1.1307,-1.1306,-1.1306,0,0,-1.1109,-1.1121,-1.1144,-1.1157,-1.1176,-1.1184,-1.119,-1.1209,-1.1216,-1.1244,-1.1244,-1.1263,-1.1298,-1.1313,-1.1324,-1.1359,-1.1359,-1.1366,-1.1381,-1.14,-1.1403,-1.1407,-1.142,-1.1425,-1.1369,-1.1369,-1.1369,0,-1.1119,-1.1149,-1.1155,-1.1177,-1.119,-1.1191,-1.1214,-1.1227,-1.1252,-1.1261,-1.1255,-1.13,-1.1313,-1.1348,-1.1356,-1.1366,-1.1373,-1.1363,-1.1402,-1.1406,-1.1409,-1.1422,-1.1427,-1.1369,-1.1369,-1.1369,-1.1369,0,-1.116,-1.1181,-1.1197,-1.1221,-1.1236,-1.1258,-1.1269,-1.1283,-1.1286,-1.1295,-1.1325,-1.1341,-1.1364,-1.1373,-1.1376,-1.1409,-1.1405,-1.14,-1.1389,-1.1414,-1.1427,-1.1432,-1.137,-1.137,-1.137,-1.137,0,0,-1.1191,-1.1219,-1.1225,-1.1236,-1.1258,-1.1275,-1.1299,-1.1322,-1.1334,-1.1352,-1.1372,-1.1403,-1.1399,-1.1412,-1.1417,-1.1433,-1.1461,-1.1427,-1.1428,-1.1434,-1.15,-1.1504,-1.1509,-1.1461,-1.1462,-1.1463,-1.1499,0,-1.1221,-1.1262,-1.1269,-1.1305,-1.1325,-1.1327,-1.1348,-1.1364,-1.1373,-1.1393,-1.1403,-1.1425,-1.1418,-1.1426,-1.1443,-1.1455,-1.1475,-1.1452,-1.1481,-1.1482,-1.1476,-1.1515,-1.1519,-1.1552,-1.1503,-1.1504,-1.1505,0,-1.1262,-1.1281,-1.1319,-1.1339,-1.1348,-1.1366,-1.1389,-1.1407,-1.1426,-1.1432,-1.1448,-1.1451,-1.1476,-1.1464,-1.15,-1.1484,-1.1497,-1.1505,-1.1506,-1.1509,-1.1495,-1.152,-1.1562,-1.1568,-1.1512,-1.1512,-1.1511,0,-1.1282,-1.1316,-1.1344,-1.1354,-1.1378,-1.1391,-1.1402,-1.142,-1.1434,-1.1454,-1.1464,-1.1486,-1.1499,-1.1517,-1.1527,-1.1517,-1.1562,-1.155,-1.1568,-1.1568,-1.1578,-1.1577,-1.1623,-1.1585,-1.1585,-1.1585,-1.1585,0,-1.1315,-1.1339,-1.1353,-1.137,-1.1397,-1.1406,-1.1432,-1.1443,-1.1459,-1.1479,-1.1482,-1.1501,-1.1513,-1.1533,-1.1541,-1.157,-1.1576,-1.1582,-1.1584,-1.1582,-1.1581,-1.159,-1.1589,-1.1586,-1.1586,-1.1586,-1.1586,0,-1.1342,-1.1352,-1.1383,-1.1404,-1.1409,-1.1428,-1.1447,-1.1464,-1.1474,-1.1499,-1.1505,-1.1521,-1.1546,-1.1557,-1.1588,-1.1593,-1.1626,-1.1626,-1.162,-1.1621,-1.1638,-1.1637,-1.1692,-1.17,-1.1656,-1.1657,-1.1657,0,-1.1362,-1.1381,-1.1404,-1.1417,-1.1428,-1.145,-1.1464,-1.1474,-1.1488,-1.1512,-1.1527,-1.1552,-1.1572,-1.1612,-1.1626,-1.165,-1.1651,-1.1669,-1.1655,-1.1653,-1.1653,-1.1652,-1.1654,-1.1672,-1.1672,-1.1672,-1.1673,0,-1.1399,-1.1403,-1.1424,-1.1446,-1.1463,-1.1481,-1.1499,-1.151,-1.1523,-1.154,-1.1565,-1.1581,-1.1613,-1.1638,-1.1663,-1.1675,-1.1677,-1.1677,-1.1683,-1.1681,-1.1677,-1.168,-1.1627,-1.1676,-1.1676,-1.1675,-1.1675,-1.1675,-1.1424,-1.144,-1.1459,-1.1482,-1.1497,-1.1514,-1.1531,-1.1543,-1.1564,-1.1591,-1.1595,-1.1622,-1.1643,-1.1676,-1.169,-1.1712,-1.1708,-1.1715,-1.1717,-1.1719,-1.1721,-1.1673,-1.1716,-1.1716,-1.1716,-1.1716,-1.1716,0,-1.1461,-1.1473,-1.1494,-1.1519,-1.1538,-1.1537,-1.1557,-1.1573,-1.1597,-1.1615,-1.1635,-1.1665,-1.169,-1.1707,-1.1732,-1.1746,-1.1748,-1.1753,-1.1752,-1.1755,-1.1723,-1.1716,-1.1751,-1.1751,-1.1751,-1.1751,-1.1751,-1.1751,-1.1483,-1.1511,-1.1518,-1.1554,-1.1567,-1.1593,-1.1605,-1.1621,-1.1636,-1.1669,-1.1689,-1.17,-1.1718,-1.1745,-1.1768,-1.1773,-1.1782,-1.1787,-1.1792,-1.1761,-1.1757,-1.1754,-1.1747,-1.1789,-1.1789,-1.1823,-1.1823,-1.1823]},{"header":{"parameterUnit":"m.s-1","parameterCategory":1,"la1":30.2991,"la2":30.254,"lo1":-89.0895,"lo2":-89.0444,"dy":0.0017,"dx":0.0017,"nx":28,"ny":28,"refTime":"2024-04-16T09:00:00:Z","depth":0,"parameterNumber":3,"parameterNumberName":"V-component_of_WINDS"},"data":[0,0,0,0,0,0,0,0,0,0,0,0,0,0,0,0,0,0,0,0,0,0,0,0,0,0,0,0,0,0,0,0,0,0,0,0,0,0,0,0,0,0,0,0,0,0,0,0,0,0,0,0,0,0,0,0,0,0,4.6298,4.6299,0,4.6419,4.642,4.6422,4.6412,4.6411,4.6409,4.6407,4.6528,4.6533,4.6538,0,0,0,0,0,0,0,0,0,0,0,0,0,4.6056,4.606,4.6298,4.6299,4.6301,4.6419,4.6421,4.6422,4.6413,4.6411,4.6408,4.6406,4.6527,4.6533,4.6538,0,0,0,0,0,0,0,0,0,0,0,0,0,4.6167,4.6062,4.6298,4.6311,4.6313,4.6419,4.6421,4.6423,4.6413,4.6411,4.6408,4.6405,4.6525,4.6532,4.6539,4.6639,0,0,4.6562,4.6565,0,0,0,0,0,0,0,0,4.6161,4.6176,4.6307,4.631,4.6313,4.6398,4.638,4.6495,4.6414,4.6375,4.6407,4.6404,4.6487,4.6497,4.6526,4.6645,4.665,4.6562,4.6567,4.657,4.6572,0,0,0,0,0,0,0,4.6153,4.6171,4.6346,4.6309,4.6312,4.6309,4.6322,4.6401,4.6445,4.6378,4.6378,4.6392,4.6488,4.6519,4.6529,4.6652,4.6562,4.6569,4.6573,4.6576,4.6859,4.6862,0,0,0,0,0,0,4.6143,4.6165,4.6342,4.6349,4.6229,4.6316,4.633,4.6373,4.6444,4.6452,4.6395,4.6392,4.6508,4.652,4.6533,4.6655,4.657,4.6577,4.6581,4.6856,4.6859,4.6863,0,0,0,0,0,0,4.6138,4.6159,4.6337,4.6257,4.6279,4.6323,4.6371,4.6377,4.6408,4.6456,4.6464,4.6418,4.6506,4.6522,4.6613,4.6659,4.658,4.6587,4.6852,4.6857,4.6861,4.6899,0,0,0,0,0,0,4.6131,4.6157,4.6196,4.6258,4.6284,4.6416,4.6374,4.6381,4.6421,4.6418,4.6481,4.6488,4.6505,4.6602,4.662,4.6667,4.6593,4.6848,4.6854,4.6859,4.6893,4.6904,4.6913,0,0,0,0,0,4.6122,4.6201,4.6198,4.622,4.6334,4.6419,4.6433,4.6452,4.6425,4.6464,4.6495,4.6486,4.6651,4.6611,4.6632,4.6682,4.6845,4.6852,4.6859,4.6889,4.6902,4.6913,0,0,0,0,0,0,4.6142,4.6209,4.6207,4.6308,4.6358,4.6417,4.6467,4.6465,4.6522,4.6517,4.6537,4.6551,4.6642,4.6671,4.6626,4.6782,4.6744,4.6756,4.676,4.6773,4.6782,4.6773,4.6599,0,0,0,0,0,4.6159,4.6223,4.6278,4.6362,4.6387,4.6423,4.6461,4.6471,4.6523,4.6543,4.6581,4.6631,4.6694,4.6735,4.6795,4.6898,4.6911,4.6942,4.6952,4.6959,4.6969,4.7025,4.704,4.6885,4.6885,4.6885,0,0,4.6193,4.6238,4.6277,4.6367,4.6407,4.6473,4.6441,4.6511,4.656,4.6554,4.6642,4.6671,4.6728,4.6825,4.687,4.6852,4.7015,4.6968,4.6974,4.698,4.7034,4.7049,4.7061,4.689,4.6889,4.6889,0,0,4.6289,4.6329,4.6404,4.6445,4.6506,4.6529,4.6547,4.6607,4.6626,4.6715,4.6712,4.677,4.6878,4.6919,4.6953,4.7065,4.7059,4.7084,4.7135,4.719,4.7202,4.7213,4.7253,4.7267,4.7094,4.7094,4.7094,0,4.6323,4.6423,4.6442,4.6514,4.6554,4.6552,4.6628,4.6666,4.6743,4.677,4.675,4.6886,4.6924,4.703,4.7058,4.7086,4.7107,4.7077,4.7199,4.721,4.722,4.7259,4.7274,4.7096,4.7096,4.7096,4.7096,0,4.6462,4.6531,4.6584,4.666,4.6706,4.6779,4.6809,4.6852,4.6859,4.6884,4.6974,4.702,4.709,4.7116,4.7122,4.7224,4.7211,4.7194,4.7157,4.7237,4.7274,4.7288,4.71,4.7099,4.7099,4.7098,0,0,4.6574,4.666,4.6679,4.6714,4.6781,4.6834,4.6907,4.6977,4.7014,4.7067,4.7128,4.722,4.7205,4.7245,4.7256,4.7304,4.739,4.7282,4.7283,4.73,4.7504,4.7517,4.7533,4.7387,4.7389,4.7392,4.75,0,4.6676,4.6807,4.6826,4.6941,4.7005,4.7005,4.7068,4.7116,4.7141,4.7199,4.7226,4.7291,4.7267,4.7291,4.7338,4.7369,4.7431,4.7362,4.7443,4.7446,4.7429,4.7552,4.7565,4.7665,4.7514,4.7516,4.7518,0,4.6814,4.6872,4.6993,4.7052,4.708,4.7136,4.7202,4.7257,4.7311,4.7326,4.7371,4.7376,4.7451,4.741,4.7513,4.7466,4.75,4.7521,4.7525,4.7533,4.7487,4.7564,4.7697,4.7712,4.7541,4.7539,4.7537,0,4.6883,4.6991,4.7078,4.7108,4.7179,4.7219,4.725,4.7301,4.7342,4.7399,4.7425,4.749,4.7525,4.7575,4.7597,4.7565,4.7699,4.766,4.7713,4.7713,4.7741,4.7739,4.7882,4.7763,4.7763,4.7763,4.7763,0,4.6996,4.707,4.711,4.7163,4.7246,4.7268,4.7349,4.7379,4.7425,4.7483,4.7487,4.7541,4.7568,4.7626,4.7644,4.7727,4.7743,4.7757,4.776,4.7757,4.7755,4.7779,4.7773,4.7767,4.7766,4.7765,4.7765,0,4.7087,4.7117,4.7212,4.7271,4.7288,4.7347,4.7397,4.7449,4.7474,4.7548,4.7567,4.7606,4.7675,4.7703,4.7787,4.7799,4.7894,4.7893,4.7876,4.7878,4.7929,4.7924,4.8093,4.8116,4.7982,4.7983,4.7984,0,4.7157,4.7214,4.728,4.732,4.7353,4.7417,4.7459,4.7482,4.7526,4.7592,4.7635,4.7704,4.7761,4.7871,4.7907,4.7972,4.7971,4.8026,4.7981,4.7975,4.7972,4.7969,4.7975,4.8034,4.8036,4.8037,4.8038,0,4.7278,4.729,4.735,4.7417,4.7467,4.752,4.7571,4.7603,4.7635,4.7683,4.7754,4.7798,4.7885,4.7953,4.802,4.8051,4.805,4.8052,4.8068,4.8064,4.8052,4.8059,4.7899,4.8048,4.8047,4.8046,4.8046,4.8045,4.7361,4.7411,4.7466,4.7534,4.7575,4.7623,4.7675,4.7707,4.7767,4.784,4.785,4.7926,4.7979,4.8068,4.8102,4.8162,4.8148,4.817,4.8176,4.8181,4.8185,4.8043,4.8174,4.8174,4.8174,4.8173,4.8173,0,4.7482,4.7517,4.7579,4.7651,4.7704,4.7699,4.7756,4.7801,4.7868,4.7918,4.7974,4.8056,4.8122,4.8164,4.8231,4.827,4.8271,4.8287,4.8284,4.8292,4.8194,4.8174,4.8285,4.8285,4.8285,4.8285,4.8285,4.8285,4.7551,4.7637,4.7656,4.7762,4.7797,4.7872,4.7905,4.7949,4.7989,4.8081,4.8137,4.8164,4.821,4.828,4.8341,4.8352,4.8376,4.8393,4.8402,4.831,4.8299,4.8287,4.8269,4.8398,4.8398,4.8495,4.8496,4.8497]}]]